Location: Newark
(48.0000°N, 67.0000°E)
Time: 00:55:30
(UTC+00:00)

ITUPSAT 1 - Visible Passes

Search period start: 03 April 2020 00:00
Search period end: 13 April 2020 00:00
Orbit: 701 x 713 km, 98.6° (Epoch: 01 April)

Date Brightness Start Highest point End Pass type
(mag) Time Alt. Az. Time Alt. Az. Time Alt. Az.
03 Apr ? 15:11:17 10° NNW 15:14:22 17° WNW 15:17:28 10° W visible
03 Apr ? 23:06:19 10° ESE 23:09:39 19° ENE 23:12:59 10° NNE visible
04 Apr ? 23:49:03 10° SE 23:53:31 43° ENE 23:58:02 10° N visible
05 Apr ? 15:01:42 10° NNW 15:05:12 20° WNW 15:08:41 10° WSW visible
05 Apr ? 22:57:34 10° E 23:00:28 16° ENE 23:03:23 10° NNE visible
06 Apr ? 23:39:58 10° SE 23:44:18 35° ENE 23:48:38 10° N visible
07 Apr ? 14:52:11 10° N 14:56:01 24° WNW 14:59:51 10° WSW visible
07 Apr ? 22:48:58 10° E 22:51:19 14° NE 22:53:41 10° NNE visible
08 Apr ? 15:38:19 10° NW 15:39:42 11° NW 15:41:05 10° WNW visible
08 Apr ? 23:30:58 10° ESE 23:35:04 30° ENE 23:39:12 10° N visible
09 Apr ? 14:42:42 10° N 14:46:49 29° WNW 14:50:55 10° WSW visible
09 Apr ? 22:40:36 10° ENE 22:42:10 12° NE 22:43:44 10° NE visible
10 Apr ? 00:14:23 10° SSE 00:19:06 71° ENE 00:23:53 10° N visible
10 Apr ? 15:28:18 10° NNW 15:30:33 13° NW 15:32:49 10° W visible
10 Apr ? 23:22:00 10° ESE 23:25:52 25° ENE 23:29:44 10° N visible
12 Apr ? 00:05:11 10° SSE 00:09:50 58° ENE 00:14:33 10° N visible
12 Apr ? 15:18:34 10° NNW 15:21:24 16° WNW 15:24:14 10° W visible
12 Apr ? 23:13:08 10° ESE 23:16:41 21° ENE 23:20:14 10° NNE visible
